Location: Meinert
(37.9441°N, 122.0275°W)
Time: 03:01:55
(UTC+00:00)

CZ-3 Stage 3 - Visible Passes

Search period start: 19 July 2024 00:00
Search period end: 29 July 2024 00:00
Orbit: 502 x 34930 km, 30.7° (Epoch: 17 July)

Date Brightness Start Highest point End Pass type
(mag) Time Alt. Az. Time Alt. Az. Time Alt. Az.
19 Jul 5.9 05:35:36 10° WNW 06:21:31 36° SW 06:24:56 30° SSW visible
22 Jul 6.2 06:19:05 10° WNW 06:44:32 26° WSW 06:47:25 23° SSW visible
25 Jul 6.6 06:54:54 10° W 07:07:14 17° WSW 07:09:53 15° SW visible
